Погода в Выбитях

Россия / Новгородская область     58°04′15″N   30°25′10″E
темп.,
°C
ветер,
м/с
пор.,
м/с
влажн.,
%
обл.,
%
осадки,
мм/ч
давл.,
гПа
погр.,
м
10 апреля, сб
сб1000:00+5ююз71563100 0.0 10131419
03:00+5ююз71463100 0.0 10121119
06:00+4ююз61468100 0.0 1013820
09:00+6ююз61367100 0.0 1013933
12:00+9ююз7135690 0.0 10121699
15:00+11ююз8145969 0.4 10121861
18:00+3зсз31196100 3.6 1015491
21:00+4зюз399095 4.3 1017805
11 апреля, вс
вс1100:00+2юз269314 0.2 1020125
03:000юз22900 0.2 102229
06:00−1юз22835 0.0 102415
09:00+4юз125968 0.0 1025264
12:00+8ю235110 0.0 10271263
15:00+10ю234732 0.0 10271603
18:00+10ююв246118 0.0 1027448
21:00+5ююв269185 0.0 1028109
12 апреля, пн
пн1200:00+5юв269460 0.0 1028127
03:00+5юв269450 0.0 1028114
06:00+5ююв310925 0.0 1027179
09:00+10ю4127193 0.0 1026376
12:00+14ю59505 0.0 1026943
15:00+16ю58435 0.0 10241414
18:00+15ююв47510 0.0 1023622
21:00+10ююв36710 0.0 1022100
13 апреля, вт
вт1300:00+8ююв31076100 0.0 1021193
03:00+7ююв3882100 0.0 1020154
06:00+5ю3787100 0.0 1020138
09:00+10ю366911 0.0 1019297
12:00+14ю35485 0.0 1019993
15:00+16ююз34395 0.0 10181668
18:00+16ю134859 0.0 1017220
21:00+10юв237869 0.0 101750
14 апреля, ср
ср1400:00+8ю229548 0.0 101718
03:00+7ююв119598 0.0 101610
06:00+7ю1195100 0.0 101610
09:00+10з1185100 0.0 1016214
12:00+13сз1171100 0.0 1016788
15:00+11ю4993100 2.4 1014595
18:00+11ю2693100 0.0 1013294
21:00+10зюз2297100 0.0 101453